Tracking 31027 objects as of 19-Jul-2025
HD Live streaming from Space Station
objects crossing your sky now

NAVSTAR 18 (USA 50)

Track NAVSTAR 18 (USA 50) now!
NAVSTAR 18 (USA 50) is classified as:


NORAD ID: 20452
Int'l Code: 1990-008A
Perigee: 21,161.2 km
Apogee: 21,246.5 km
Inclination: 54.8 °
Period: 759.5 minutes
Semi major axis: 27574 km
RCS: 1.5533 m2 (large)
Launch date: January 24, 1990
Source: United States (US)
Launch site: AIR FORCE EASTERN TEST RANGE (AFETR)
Your satellite tracking list
COSMOS 1743
Track 1 satellite(s)




NASA's NSSDC Master Catalog

Two Line Element Set (TLE):
1 20452U 90008A   25195.53048373  .00000058  00000-0  00000-0 0  9998
2 20452  54.7950 145.4620 0015466 277.8235 303.2467  1.89597808250022
Source of the keplerian elements: AFSPC